This demonstration page uses our WeatherBlox Daily Observations layout. Learn more.

Left ArrowRight Arrow

30.21309, -93.2044

Hourly Observations for August 4, 2022

Temp ( °F °C ) Dew Point ( °F °C ) Humidity (%) Winds ( mph kmh ) Pressure ( in mb ) Visibility ( mi km ) Precip ( " mm )
12:15 am 00:15 Clear 78 25.7 76 24.5 93 93 ESE 7 11 29.97 1015 7 11 0.00 0.00
12:35 am 00:35 Clear 78 25.8 76 24.7 94 94 ESE 6 9 29.98 1015 10 16 0.00 0.00
12:55 am 00:55 Clear 78 25.6 76 24.5 94 94 SE 5 7 29.98 1015 7 11 0.00 0.00
1:15 am 01:15 Partly Cloudy 78 25.3 76 24.3 94 94 E 6 9 29.98 1015 7 11 0.00 0.00
1:35 am 01:35 Partly Cloudy with Mist and Fog 78 25.4 76 24.5 95 95 Calm 29.97 1015 7 11 0.00 0.00
1:55 am 01:55 Clear with Mist and Fog 78 25.3 76 24.4 95 95 SE 3 6 29.97 1015 5 8 0.00 0.00
2:15 am 02:15 Clear with Mist and Fog 77 25 75 24.1 95 95 ESE 5 7 29.96 1015 7 11 0.00 0.00
2:35 am 02:35 Clear with Mist and Fog 77 25.1 76 24.2 95 95 SSE 3 6 29.96 1015 5 8 0.00 0.00
2:55 am 02:55 Clear with Mist and Fog 77 24.9 75 24.1 95 95 SSE 5 7 29.95 1014 7 11 0.00 0.00
3:15 am 03:15 Clear 77 25 75 24.1 95 95 S 3 6 29.95 1014 7 11 0.00 0.00
3:35 am 03:35 Partly Cloudy 78 25.7 77 24.8 95 95 WSW 3 6 29.94 1014 10 16 0.00 0.00
3:55 am 03:55 Mostly Cloudy 79 26.2 76 24.7 91 91 Calm 29.95 1014 10 16 0.00 0.00
4:15 am 04:15 Partly Cloudy 78 25.7 76 24.4 93 93 Calm 29.95 1014 10 16 0.00 0.00
4:35 am 04:35 Clear 78 25.5 76 24.3 93 93 E 3 6 29.95 1014 10 16 0.00 0.00
4:55 am 04:55 Clear with Mist and Fog 77 24.9 75 23.9 94 94 E 6 9 29.96 1015 7 11 0.00 0.00
5:15 am 05:15 Clear with Mist and Fog 76 24.6 75 23.7 95 95 E 5 7 29.95 1014 5 8 0.00 0.00
5:35 am 05:35 Partly Cloudy with Mist and Fog 76 24.6 75 23.7 95 95 E 5 7 29.96 1015 5 8 0.00 0.00
6:00 am 06:00 Partly Cloudy 75 24 75 24 100 100 Calm 29.96 1015 10 16 0.00 0.00
6:50 am 06:50 Partly Cloudy 77 25 75 24 94 94 Calm 29.98 1015 10 16 0.00 0.00
7:52 am 07:52 Partly Cloudy 79 26 77 25 94 94 Calm 29.99 1016 10 16 0.00 0.00
8:53 am 08:53 Mostly Cloudy with Thunderstorms 79 26 72 22 79 79 S 14 22 30.02 1017 7 11 0.00 0.00
9:50 am 09:50 Mostly Cloudy with Thunderstorms 77 25 72 22 83 83 Calm 30.02 1017 7 11 0.00 0.00
10:50 am 10:50 Mostly Cloudy 79 26 72 22 79 79 SSE 14 22 30.02 1017 10 16 0.00 0.00
11:47 am 11:47 Partly Cloudy 86 30 73 23 66 66 WSW 8 13 30.02 1017 10 16 0.00 0.00
12:53 pm 12:53 Partly Cloudy 90 32 72 22 55 55 WSW 8 13 30.00 1016 10 16 0.00 0.00
1:47 pm 13:47 Partly Cloudy 91 33 73 23 56 56 WSW 8 13 29.98 1015 10 16 0.00 0.00
2:55 pm 14:55 Mostly Sunny 91 33 72 22 52 52 WSW 7 11 29.97 1015 10 16 0.00 0.00
3:46 pm 15:46 Mostly Cloudy 90 32 73 23 59 59 S 8 13 29.97 1015 10 16 0.00 0.00
4:50 pm 16:50 Mostly Cloudy 90 32 73 23 59 59 S 6 9 29.96 1015 10 16 0.00 0.00
5:14 pm 17:14 Mostly Cloudy with Thunderstorms 88 31 75 24 66 66 ENE 10 17 29.97 1015 10 16 0.00 0.00
5:28 pm 17:28 Cloudy with Thunderstorms 79 26 72 22 79 79 E 23 37 29.98 1015 1 2 0.00 0.00
5:46 pm 17:46 Mostly Cloudy with Thunderstorms 75 24 72 22 89 89 E 14 22 29.99 1016 7 11 0.00 0.00
6:50 pm 18:50 Partly Cloudy 77 25 73 23 89 89 S 6 9 29.96 1015 10 16 0.00 0.00
7:50 pm 19:50 Mostly Sunny 75 24 72 22 89 89 Calm 29.97 1015 10 16 0.00 0.00
8:50 pm 20:50 Mostly Clear 75 24 72 22 89 89 Calm 29.97 1015 10 16 0.00 0.00
9:45 pm 21:45 Mostly Clear 75 24 72 22 89 89 Calm 29.98 1015 10 16 0.00 0.00
10:15 pm 22:15 Clear 74 23.6 72 22.3 92 92 E 5 7 29.99 1016 10 16 0.00 0.00
10:35 pm 22:35 Clear 74 23.5 72 22.3 93 93 E 5 7 29.99 1016 10 16 0.00 0.00
10:55 pm 22:55 Clear 74 23.4 72 22.3 94 94 ESE 3 6 29.99 1016 10 16 0.00 0.00
11:15 pm 23:15 Clear 74 23.2 72 22.2 94 94 ESE 3 6 29.99 1016 10 16 0.00 0.00
11:35 pm 23:35 Clear 74 23.3 72 22.3 94 94 E 5 7 29.99 1016 10 16 0.00 0.00
11:55 pm 23:55 Clear 74 23.3 72 22.3 94 94 E 3 6 29.99 1016 10 16 0.00 0.00

Powered by AerisWeather